Regional Weather Roundup
Issued by NWS

Home | Current Version | Previous Version | Text Only | Print | Product List | Glossary On
Versions: 1 2 3 4 5 6 7 8 9 10 11 12 13 14 15 16 17 18 19 20 21 22 23 24 25 26 27 28 29 30 31 32 33 34 35 36 37 38 39 40 41 42 43 44 45 46 47 48 49 50
471
ASUS43 KIND 271009
RWRIN

WEATHER ROUNDUP FOR INDIANA
NATIONAL WEATHER SERVICE INDIANAPOLIS IN
600 AM EDT TUE SEP 27 2016

NOTE: "FAIR" INDICATES FEW OR NO CLOUDS BELOW 12,000 FEET WITH NO
SIGNIFICANT WEATHER AND/OR OBSTRUCTIONS TO VISIBILITY.

* - STATION DOES NOT REPORT WEATHER SUCH AS PRECIPITATION OR FOG.

+ - STATION NOT QUALITY CONTROLLED BY THE NATIONAL WEATHER SERVICE.
    USE DATA WITH CAUTION...ESPECIALLY DEWPOINT AND RELATIVE
    HUMIDITY OBSERVATIONS.

INZ001>003-010>013-019-020-271100-
NORTHWEST INDIANA

CITY           SKY/WX    TMP DP  RH WIND       PRES   REMARKS
GARY /AIRPORT/ CLEAR     55  43  62 SW14      29.87F
KNOX *+        CLEAR     48  25  40 SW8       29.88F
LA PORTE +     CLEAR     50  44  80 SW7       29.87F
MICHIGAN CITY+ CLEAR     50  41  71 MISG      29.85F
MONTICELLO +   CLEAR     49  38  68 S8        29.91F
RENSSELAER +   CLEAR     50  43  76 SW7       29.90F
VALPARAISO     CLEAR     48  42  80 SW10      29.88F

$$

LMZ046-743>745-271100-
SOUTHERN LAKE MICHIGAN

STATION/POSITION TIME  TEMP    WIND        PRES    WAVE
                       AIR SEA DIR/SP/G            HT
                 (UTC) (F)     (DEG/KT/KT) (MB)    (FT)
BURNS HARBOR     0900   57     230/ 13/ 18 1011.5F
MICHIGAN CITY    0900   54     190/ 14/ 16   N/A
5NW MICH CITY    1000   60 67  240/ 17/ 23   N/A     4

$$

INZ004-005-014>016-021>024-271100-
NORTH CENTRAL INDIANA

CITY           SKY/WX    TMP DP  RH WIND       PRES   REMARKS
GOSHEN         CLEAR     49  39  68 SW12      29.86F
LOGANSPORT +   CLEAR     46  41  81 SW8       29.92F
PERU/GRISSOM   CLEAR     52  41  67 SW13      29.89F
ROCHESTER +    CLEAR     52  43  71 SW6       29.89F
SOUTH BEND     CLEAR     48  41  76 SW13      29.86F
WARSAW +       CLEAR     52  36  54 SW9       29.88F

$$

INZ006>009-017-018-025>027-271100-
NORTHEAST INDIANA

CITY           SKY/WX    TMP DP  RH WIND       PRES   REMARKS
ANGOLA *+        N/A     48  37  66 SW6       29.85F
AUBURN +       CLEAR     50  37  62 SW6       29.88F
FORT WAYNE     CLEAR     47  40  76 SW9       29.90F
HUNTINGTON +   CLEAR     51  41  68 SW5       29.90F
KENDALLVILLE + CLEAR     50  40  67 SW9       29.87F

$$

INZ028-029-035-036-043>045-051>053-271100-
WEST CENTRAL INDIANA

CITY           SKY/WX    TMP DP  RH WIND       PRES   REMARKS
CRAWFORDSVL +  CLEAR     47  43  87 SW6       29.96F
GREENCASTLE +  CLEAR     46  46 100 CALM      29.98F
LAFAYETTE      CLEAR     47  43  86 SW5       29.93F
TERRE HAUTE    CLEAR     49  43  80 SW6       29.99S

$$

INZ030>032-037>040-046>048-054>057-064-065-271100-
CENTRAL INDIANA

CITY           SKY/WX    TMP DP  RH WIND       PRES   REMARKS
FISHERS *+     CLEAR     48  45  87 CALM      29.96F
FRANKFORT +    CLEAR     55  43  64 W7        29.95F
GREENWOOD *+   CLEAR     50  45  81 SW3       29.98F
INDIANAPOLIS   CLEAR     48  43  82 SW6       29.96F
-EAGLE CREEK   CLEAR     52  42  69 SW5       29.95F
MARION +       CLEAR     50  40  67 SW8       29.93F
MT COMFORT *+  CLEAR     50  43  76 SW6       29.97F
SHELBYVILLE    CLEAR     50  43  77 S6        29.97F
ZIONSVILLE +   CLEAR     49  41  73 SW7       29.96S

$$

INZ033-034-041-042-049-050-058-059-271100-
EAST CENTRAL INDIANA

CITY           SKY/WX    TMP DP  RH WIND       PRES   REMARKS
MUNCIE         CLEAR     53  41  63 SW8       29.94F

$$

INZ060-061-067>069-081>083-085>088-271100-
SOUTHWEST INDIANA

CITY           SKY/WX    TMP DP  RH WIND       PRES   REMARKS
EVANSVILLE     CLEAR     51  47  86 W3        30.04S
HUNTINGBURG *+   N/A     48  45  87 S5        30.04S
WASHINGTON +   CLEAR     54  47  76 MISG      30.01F

$$

INZ062-063-066-070>080-084-089>092-271100-
SOUTH CENTRAL AND SOUTHEAST INDIANA

CITY           SKY/WX    TMP DP  RH WIND       PRES   REMARKS
BLOOMINGTON    CLEAR     49  43  80 SW5       30.00S
MADISON *+     CLEAR     45  45 100 CALM      30.04F
NORTH VERNON + PTCLDY   N/A N/A N/A CALM      30.01F
SEYMOUR +      PTCLDY    46  45  93 CALM      30.01S

$$





USA.gov is the U.S. government's official web portal to all federal, state and local government web resources and services.